Theta_e
314 314 317 317 318 315 320 322 319 345 348 342 346 349 350 349 353 353 352 352 348 349 338 325 325 326 329 326 327 327 328 329 330 332 334 336 335 331 329 326 328 336 344 347 348 349 347 342 340
313 318 318 312 316 317 317 318 334 337 341 342 344 343 345 345 344 350 352 351 348 344 337 325 325 325 328 326 328 330 332 333 333 333 334 333 330 328 327 329 333 340 343 347 347 347 346 342 340
316 318 315 313 316 319 318 319 337 344 342 345 343 343 347 347 347 351 348 350 350 343 336 326 326 325 328 327 328 329 331 332 333 333 332 329 329 327 331 333 336 339 344 348 346 345 345 344 341
318 314 308 314 320 320 319 320 334 345 343 344 345 345 344 345 348 346 351 350 342 345 337 327 326 325 327 327 327 328 330 330 331 330 328 329 329 327 331 334 336 338 342 345 346 344 342 340 340
316 308 311 313 316 316 316 316 318 344 343 348 346 349 351 339 347 351 352 353 343 344 339 330 327 325 325 328 328 328 329 330 330 329 326 328 329 328 328 334 336 337 339 343 344 344 342 339 339
313 309 312 312 316 315 314 315 315 339 343 347 346 347 337 340 349 351 353 354 343 342 341 335 329 327 325 326 328 329 329 330 330 330 327 328 330 329 329 330 336 336 336 339 344 344 344 341 340
314 311 313 315 316 316 316 313 328 337 345 346 341 341 348 345 348 351 349 348 343 343 342 339 334 330 328 326 327 329 329 330 330 329 328 327 328 328 329 328 329 334 335 336 340 344 344 343 342
310 310 315 315 316 316 314 313 340 345 349 340 344 346 341 344 349 350 347 343 342 344 344 342 339 334 333 330 326 328 329 330 331 330 329 328 328 328 328 328 328 328 334 335 338 341 344 344 343
309 311 313 316 314 316 312 313 316 330 345 346 342 352 344 349 350 347 348 346 346 345 345 344 342 341 337 336 330 327 329 330 330 331 331 330 330 330 329 327 328 328 328 333 336 341 342 344 344
312 311 313 312 313 315 313 315 315 339 344 350 354 351 345 346 349 348 347 347 346 346 346 343 343 343 341 340 338 332 329 330 331 331 332 332 331 330 330 329 327 327 327 328 335 339 342 344 345
311 314 312 315 313 312 315 314 315 335 344 343 355 351 345 340 343 348 347 346 346 342 339 338 342 342 341 341 340 338 332 330 331 331 333 334 333 332 331 331 330 327 327 327 329 336 340 343 344
315 313 313 314 314 315 314 314 316 321 334 321 322 349 345 340 335 347 347 346 346 344 339 336 338 338 338 340 342 341 338 333 331 331 334 335 335 334 332 331 331 329 327 328 327 329 336 340 342
313 314 313 312 312 310 312 313 315 315 316 320 330 349 347 341 335 339 348 346 345 345 339 335 334 334 335 341 342 341 341 336 333 333 334 336 337 335 334 331 331 331 330 330 330 328 326 333 339
314 315 315 315 315 311 313 314 316 316 315 338 349 350 348 343 338 337 340 349 345 344 343 336 334 335 337 340 341 340 340 338 336 336 335 337 338 337 335 331 334 338 336 337 337 335 331 328 331
316 317 315 317 317 317 314 317 317 316 316 333 342 343 344 342 339 339 339 343 349 346 345 344 334 332 334 338 337 337 337 338 338 338 337 338 338 338 336 334 334 339 340 342 341 339 337 333 329
317 314 317 316 317 318 316 316 315 314 314 318 331 336 340 338 338 341 340 341 344 347 345 344 341 334 334 334 334 334 336 337 335 335 335 336 337 337 337 336 335 338 339 342 342 341 339 338 333
312 316 317 317 316 319 318 318 317 316 313 314 314 314 324 329 329 336 340 341 344 347 347 344 343 336 334 332 333 335 339 335 334 334 334 335 335 336 338 338 336 341 342 342 342 341 341 339 337
316 317 318 318 318 317 316 316 315 314 313 313 313 312 312 313 318 332 340 342 342 339 344 344 345 341 335 334 334 340 342 340 339 339 335 340 340 340 341 339 335 337 343 342 342 341 340 339 339
318 318 319 317 317 318 316 316 315 314 315 315 315 313 312 312 313 316 316 318 324 338 343 344 345 344 339 337 336 341 343 344 343 344 345 343 343 341 340 338 337 336 342 341 341 340 340 340 340
317 319 318 317 316 316 316 318 317 317 316 314 313 312 312 312 312 313 315 317 318 334 345 346 345 344 342 340 339 343 345 345 347 347 346 345 343 343 341 339 337 333 332 339 341 340 339 337 336
318 318 318 319 317 317 318 317 316 317 315 318 317 317 317 315 316 317 316 314 316 318 332 346 346 345 344 341 341 344 346 347 347 343 343 344 343 343 342 339 333 332 340 340 341 341 337 334 335
319 316 318 318 317 318 316 318 315 316 319 319 319 319 318 317 316 316 319 317 317 315 319 333 345 345 345 343 342 344 346 346 343 340 340 341 342 340 339 338 333 333 341 341 339 337 335 335 337
318 318 318 318 316 316 317 316 316 315 321 319 318 319 319 317 316 318 321 321 318 318 316 320 339 345 345 344 344 344 346 345 339 339 340 339 338 337 338 335 334 334 340 342 338 338 336 336 336
318 319 315 313 313 318 317 316 316 322 322 320 318 319 319 318 316 318 321 322 321 324 317 318 332 344 345 344 343 344 345 343 340 339 342 337 337 336 337 332 336 339 342 341 339 336 337 337 339
317 317 320 321 321 321 317 320 317 323 321 319 317 316 317 315 316 318 320 320 322 323 325 322 331 343 345 343 343 344 344 341 337 332 336 336 337 335 333 329 333 337 339 339 338 336 338 339 338
318 317 319 324 325 323 319 321 323 320 314 314 314 313 314 315 315 317 319 319 320 322 326 326 328 339 342 341 340 342 342 340 338 333 335 334 337 334 330 329 330 330 334 337 337 338 339 338 337
318 318 315 316 317 319 318 322 320 314 315 314 313 315 315 315 316 315 317 319 319 321 323 327 329 332 336 340 340 339 337 337 337 333 334 335 336 336 333 330 331 333 334 337 338 339 339 337 336
317 314 318 315 323 324 320 321 320 316 315 313 312 314 315 314 315 317 316 317 319 320 321 324 327 328 332 334 337 340 337 335 334 330 333 334 335 336 335 332 330 334 336 337 338 339 340 338 334
313 312 311 311 314 320 320 319 314 315 315 313 312 313 313 313 313 316 317 317 319 321 321 322 323 323 327 332 335 338 341 341 337 333 334 335 335 336 335 332 332 334 337 339 338 340 340 336 332
309 309 308 314 315 313 316 314 315 314 314 313 312 312 312 313 312 314 315 317 317 320 322 320 320 322 322 326 331 330 331 336 339 339 337 333 334 336 336 334 333 335 337 339 339 338 338 335 329
Wind_Speed
5 3 4 3 4 5 3 4 2 2 2 3 4 3 6 1 5 4 3 18 23 28 28 27 25 24 23 23 24 25 24 24 22 21 20 18 17 16 15 16 16 17 17 15 14 15 14 14 12
3 4 3 2 4 3 4 5 4 3 0 2 1 1 2 3 0 3 8 12 29 32 29 30 27 26 24 24 24 24 23 21 21 21 19 17 16 16 15 15 16 16 16 16 14 14 13 12 10
1 2 3 4 3 4 4 5 6 1 3 2 2 1 2 2 2 10 7 14 28 31 29 28 27 26 25 24 24 23 22 21 20 19 19 17 15 15 15 14 14 14 14 15 15 13 12 10 8
1 5 4 4 3 2 3 7 3 3 2 2 2 3 1 2 1 1 13 22 27 29 29 28 27 25 24 24 23 22 20 20 20 18 17 16 15 14 15 14 13 13 14 15 15 14 13 11 9
5 3 4 3 3 4 5 5 5 5 2 4 5 2 3 2 6 6 19 25 30 31 29 28 27 27 26 24 23 22 20 17 18 17 16 15 14 13 13 12 12 11 12 12 13 13 13 11 8
4 3 5 2 4 5 6 5 4 5 3 0 1 2 4 1 5 13 18 25 30 31 29 26 26 25 26 25 23 21 20 18 17 16 15 13 12 12 11 11 10 10 9 10 11 12 11 10 8
6 4 5 4 2 5 5 6 5 6 3 4 3 4 1 3 12 15 17 22 29 29 29 27 25 25 24 24 23 22 21 19 17 16 15 15 13 12 11 10 10 9 9 10 11 12 11 11 9
5 4 3 3 2 4 6 7 3 5 5 1 6 5 3 4 18 17 18 22 25 26 27 28 26 25 25 23 23 23 21 19 17 16 15 15 14 12 12 10 9 9 9 8 10 13 12 11 9
4 5 1 3 5 4 5 8 4 2 5 3 6 1 2 26 23 21 18 19 21 23 24 26 27 25 25 25 24 23 23 22 20 18 16 16 15 14 13 11 10 9 8 8 9 11 13 12 11
4 4 9 5 3 2 5 3 4 3 2 3 5 6 16 23 22 18 15 18 23 24 25 26 27 27 26 25 25 25 24 24 23 21 20 19 17 16 14 13 12 11 10 9 9 10 11 11 11
3 5 5 5 7 4 4 7 2 6 2 7 8 7 8 16 13 14 16 20 24 30 29 28 28 27 27 26 26 26 27 26 24 23 23 20 19 17 16 15 13 13 12 11 10 10 11 11 11
1 5 5 4 4 3 4 2 6 3 6 5 7 0 7 8 9 15 19 23 25 28 30 29 29 27 26 27 29 29 28 28 27 26 24 23 21 19 17 16 15 14 13 12 11 10 9 10 12
3 3 4 7 8 8 1 8 5 6 6 3 4 8 7 6 8 14 9 19 26 31 31 31 30 29 28 29 30 29 30 29 27 26 25 24 23 21 18 17 16 15 13 12 11 11 11 11 12
5 3 6 5 4 3 5 0 7 7 5 3 5 10 8 9 11 9 17 20 26 28 30 30 30 29 29 32 30 29 30 28 27 27 26 24 23 21 19 19 18 15 13 13 12 11 12 11 11
1 4 6 3 1 3 5 4 4 4 4 5 7 6 5 8 4 16 19 23 25 28 26 31 33 33 32 33 29 28 27 27 27 26 25 24 23 22 21 20 20 18 16 16 16 13 12 12 11
2 4 1 4 0 2 6 6 9 8 6 10 9 7 7 8 14 24 28 27 29 28 32 32 34 36 35 34 31 27 27 27 27 24 23 24 23 23 21 21 18 17 17 15 18 14 12 13 11
6 2 3 5 5 1 4 6 4 5 7 10 9 9 9 9 12 27 32 35 37 37 34 34 33 37 39 35 33 28 25 27 26 23 23 24 22 23 21 19 17 14 15 17 16 14 13 13 12
2 2 3 4 0 2 1 6 6 6 6 7 6 6 7 8 15 30 39 40 39 39 38 35 36 39 37 35 32 27 23 26 25 23 23 23 22 23 21 18 14 13 12 10 10 8 5 7 5
2 3 4 6 5 1 4 4 9 7 2 2 5 5 7 9 8 17 18 21 30 32 33 36 37 39 37 36 34 30 29 29 28 26 24 24 23 21 22 20 16 16 17 10 9 7 8 5 5
5 3 7 8 4 6 2 4 4 4 6 7 9 11 11 10 10 8 17 15 24 30 33 35 41 41 43 42 37 26 31 31 30 26 26 26 24 22 21 20 17 15 16 18 13 9 5 4 4
3 5 5 8 4 2 1 5 5 4 11 11 10 6 9 10 14 16 17 20 21 31 36 40 45 45 45 39 35 29 24 24 26 25 29 28 25 22 20 17 18 16 14 17 14 11 9 8 7
4 8 5 3 4 4 2 3 5 4 9 10 9 10 9 9 8 8 14 21 23 30 40 45 40 42 43 43 41 38 31 25 33 33 33 28 25 21 17 15 19 16 16 14 13 14 11 10 9
8 4 4 3 5 4 1 5 6 2 7 7 9 10 11 11 11 13 15 21 23 20 31 40 40 37 38 45 45 42 32 34 35 35 33 27 24 20 17 16 17 19 19 16 16 14 10 8 8
1 3 6 4 4 2 5 6 3 2 1 3 6 8 10 11 11 11 20 23 24 21 17 28 32 37 37 45 44 43 39 36 35 35 33 30 26 22 20 18 19 19 20 20 16 12 10 9 7
5 5 2 3 1 5 4 3 3 3 2 3 5 8 9 8 10 12 16 22 25 28 12 13 19 23 30 39 41 45 45 42 41 39 35 35 29 27 26 23 23 24 22 20 17 14 13 11 10
3 7 5 6 4 4 2 5 5 5 6 4 4 5 8 13 11 11 12 18 18 26 24 9 7 10 16 23 29 41 44 42 44 42 40 37 34 34 32 29 27 25 23 21 19 17 14 12 11
4 2 4 6 3 2 3 3 1 3 2 4 6 9 11 12 14 12 15 19 23 23 28 24 13 3 5 13 21 29 37 41 44 41 39 37 36 37 36 34 32 30 27 26 23 21 18 15 13
3 5 2 2 4 5 4 3 5 3 6 7 9 8 8 9 13 14 14 20 25 23 20 23 20 16 10 4 15 20 24 33 38 37 39 39 39 40 40 37 37 36 33 30 27 24 19 17 15
6 4 5 3 3 5 3 4 5 5 2 3 6 7 7 7 8 8 15 19 25 23 21 19 19 20 18 11 8 11 19 25 30 33 36 37 39 42 44 41 41 39 37 34 30 27 24 20 17
4 2 3 4 2 1 2 5 5 5 2 3 5 5 6 6 6 6 12 17 18 22 21 22 21 16 14 14 9 11 9 10 22 29 35 36 35 39 42 43 42 43 41 39 34 31 28 25 21
Wind_Direction
347 319 163 95 57 62 325 307 268 69 7 352 101 175 193 82 171 217 9 168 174 165 160 152 151 151 149 142 138 137 140 143 144 143 141 140 139 136 134 131 128 126 125 122 119 121 118 113 106
342 122 100 86 87 66 282 277 318 201 106 134 139 42 147 201 279 90 140 153 162 164 163 153 155 154 152 148 144 143 141 142 144 145 147 146 144 140 138 134 133 132 133 132 133 132 128 123 117
77 108 85 95 121 165 184 253 281 160 112 107 111 164 154 221 111 171 162 156 162 163 163 155 156 157 155 153 150 149 148 147 149 151 151 149 146 141 140 138 135 135 136 138 142 140 141 136 128
136 23 35 83 198 266 194 246 275 162 47 128 129 269 256 206 220 145 169 163 167 167 162 159 157 158 160 159 156 154 156 154 154 155 153 153 151 149 148 147 145 144 146 149 155 155 152 145 137
54 57 61 78 287 260 249 242 220 192 162 202 146 269 263 228 262 206 167 172 170 168 167 164 162 162 166 166 162 160 160 161 159 160 159 160 159 156 154 153 150 148 149 151 159 161 158 154 151
47 96 66 175 250 264 272 243 168 191 237 227 89 126 246 215 187 171 169 172 174 169 169 168 167 167 169 170 168 168 166 168 169 165 163 166 166 164 160 159 157 155 151 156 162 169 165 161 163
110 81 168 195 256 294 266 320 176 155 172 233 165 188 184 217 182 173 167 170 169 170 169 172 175 173 173 173 175 175 172 175 177 174 172 174 177 175 173 171 171 167 163 165 171 175 178 176 174
107 91 132 256 194 272 322 341 129 159 198 76 148 238 275 191 165 170 169 172 171 173 174 175 181 182 177 177 183 181 180 184 183 184 183 186 185 186 185 183 184 185 179 175 176 182 185 187 190
125 65 174 242 173 266 338 6 352 7 118 239 205 267 159 149 156 155 158 168 173 174 178 180 184 190 185 185 187 189 189 188 190 194 196 196 195 195 196 196 196 195 195 190 186 186 190 195 199
91 116 212 218 214 306 308 309 318 167 132 290 301 85 121 141 151 148 159 168 179 181 185 186 188 192 192 192 193 194 197 196 195 199 203 205 204 204 204 205 203 203 205 205 200 198 199 201 209
158 173 210 256 224 214 266 315 230 132 261 232 224 156 153 143 153 162 177 187 182 189 190 190 191 193 194 196 198 199 202 203 202 206 210 211 211 211 211 212 210 212 213 214 213 209 209 211 216
176 224 194 274 243 193 207 205 300 226 213 215 245 301 157 161 168 182 183 188 188 194 197 195 194 193 195 198 204 203 205 208 207 211 214 216 217 217 218 221 221 223 223 223 225 227 225 221 228
182 270 188 253 281 248 235 232 204 255 248 300 216 127 192 175 181 197 191 200 196 195 201 202 200 200 197 200 206 207 210 213 214 216 218 221 223 224 224 227 228 229 229 233 234 237 236 231 231
203 255 282 284 274 255 182 211 140 230 231 176 201 184 197 210 201 181 211 212 209 204 202 205 208 207 203 205 209 211 214 217 220 222 224 226 228 231 230 231 232 234 238 245 251 254 254 249 248
269 318 334 245 201 260 160 2 219 228 196 195 211 272 221 220 224 238 228 227 225 219 213 213 213 210 209 211 214 218 221 222 225 226 230 232 234 235 234 235 239 244 249 253 252 253 263 257 251
21 45 47 280 223 219 113 256 261 254 180 213 225 222 218 240 223 236 244 237 232 226 219 214 215 213 210 214 215 220 223 226 230 232 235 236 237 239 238 239 241 255 258 255 253 252 254 262 254
4 226 232 315 192 299 173 241 242 287 230 206 222 227 213 226 240 239 239 236 234 228 224 219 218 216 213 213 216 219 226 228 233 238 237 237 238 239 236 235 240 249 258 254 251 255 248 253 254
277 21 336 271 262 20 195 268 294 302 232 264 188 261 262 245 234 228 232 235 236 233 228 224 216 217 216 216 215 219 230 230 234 236 239 237 238 234 232 226 226 249 242 224 225 220 234 228 211
229 232 236 254 233 294 269 271 299 326 101 283 300 289 251 258 304 280 283 251 235 226 217 215 210 213 213 211 209 216 226 223 230 233 239 235 238 237 233 228 237 235 222 222 210 210 200 185 181
205 258 272 284 280 162 245 270 294 31 56 30 26 13 1 355 346 337 314 284 249 234 223 215 214 210 213 213 203 206 216 222 226 230 230 231 236 241 237 235 238 223 227 220 219 214 201 177 182
237 186 239 214 7 89 141 341 340 46 50 38 35 12 6 359 346 345 341 318 274 236 231 223 214 213 213 204 202 206 216 223 224 223 228 228 234 242 243 238 222 218 216 212 208 208 187 155 146
272 197 221 197 103 225 54 248 296 79 41 31 9 11 1 349 335 322 335 329 314 270 244 227 218 209 209 205 203 203 204 206 219 215 221 223 228 234 237 225 212 218 207 204 197 179 174 157 145
231 152 196 187 156 117 336 99 268 66 43 4 353 358 356 348 342 340 343 332 323 300 258 236 218 211 205 205 208 205 203 214 215 217 221 218 222 227 234 222 217 215 212 205 192 186 179 172 163
288 100 45 54 95 121 222 144 304 44 46 346 355 353 349 348 344 347 350 351 349 352 271 243 214 208 203 206 203 207 206 211 211 219 216 215 217 219 225 218 213 210 208 203 199 197 197 192 187
86 67 322 337 355 216 170 100 172 142 23 22 351 339 338 341 351 355 359 358 2 11 355 241 220 209 203 205 203 209 212 215 214 215 211 213 215 217 220 216 209 207 206 205 205 207 206 207 201
160 148 162 215 202 244 339 208 196 130 31 25 359 329 351 357 350 356 359 356 4 32 28 16 234 227 213 209 215 209 214 215 217 218 214 216 215 216 217 216 212 210 209 210 208 211 214 211 207
185 161 171 108 26 84 222 73 32 85 75 358 7 8 5 358 350 346 351 4 3 31 47 42 36 268 266 220 221 226 222 217 219 221 220 219 221 223 222 219 220 216 215 216 213 214 216 212 208
101 150 90 19 171 227 274 228 163 18 352 353 5 3 352 352 351 351 351 353 5 9 33 50 51 44 30 313 253 249 242 234 229 229 228 227 228 227 227 223 222 221 220 219 217 218 219 215 208
352 359 40 110 128 184 193 245 177 166 228 341 344 336 336 341 345 346 352 354 7 7 9 25 47 45 39 21 355 311 267 253 244 239 234 234 231 228 227 228 227 227 224 224 218 218 217 213 208
110 120 95 128 232 333 146 256 137 168 192 350 335 314 320 322 333 350 0 4 6 9 8 13 11 27 40 40 28 20 357 292 251 240 241 243 241 233 232 232 232 232 230 225 219 218 218 209 206